Burnsville, North Carolina, United States (28714)
Lat: 35.92N, Lon: 82.3W
Wx Zone: NCZ049
Local Info
Past Weather Observations for Monday, October 20, 2014

NOTE: This archive is for the closest National Weather Service station to Burnsville. Information may differ from the station used for current weather conditions.

Click here for Long-term Archive

Time Weather Temperature Dewpoint Humidity Pressure Winds Precip Visibility
23:54
Clear
48°F / 9°C 46°F / 8°C 94% 30.01 in
(1016 mb)
Calm - 10SM
23:33
Partly Cloudy
48°F / 9°C 48°F / 9°C 100% 30.04 in
(1017 mb)
Calm - 10SM
23:26
Partly Cloudy
Fog And Mist
48°F / 9°C 48°F / 9°C 100% 30.04 in
(1017 mb)
Calm - 2 1/2SM
23:21
Partly Cloudy
Fog And Mist
48°F / 9°C 48°F / 9°C 100% 30.04 in
(1017 mb)
Calm - 1 1/4SM
23:17
Obscured
Fog And Mist
48°F / 9°C 48°F / 9°C 100% 30.04 in
(1017 mb)
Calm - 3/4SM
23:12
Partly Cloudy
Fog And Mist
48°F / 9°C 48°F / 9°C 100% 30.04 in
(1017 mb)
Calm - 1 1/4SM
23:09
Partly Cloudy
Fog And Mist
48°F / 9°C 48°F / 9°C 100% 30.04 in
(1017 mb)
Calm - 2 1/2SM
22:54
Partly Cloudy
50°F / 10°C 48°F / 9°C 94% 30.04 in
(1017 mb)
NNW 3.5 mph
(NNW 6 kph)
- 10SM
21:54
Partly Cloudy
52°F / 11°C 50°F / 10°C 94% 30.04 in
(1017 mb)
NNW 3.5 mph
(NNW 6 kph)
- 10SM
21:39
Partly Cloudy
Fog And Mist
52°F / 11°C 52°F / 11°C 100% 30.04 in
(1017 mb)
Calm - 3SM
21:31
Partly Cloudy
Fog And Mist
52°F / 11°C 52°F / 11°C 100% 30.04 in
(1017 mb)
NNW 4.6 mph
(NNW 7 kph)
- 2SM
21:26
Partly Cloudy
Fog And Mist
52°F / 11°C 50°F / 10°C 94% 30.04 in
(1017 mb)
NNW 4.6 mph
(NNW 7 kph)
- 1 1/4SM
21:21
Partly Cloudy
Fog And Mist
52°F / 11°C 52°F / 11°C 100% 30.04 in
(1017 mb)
NNW 5.8 mph
(NNW 9 kph)
- 2 1/2SM
20:54
Clear
55°F / 13°C 52°F / 11°C 88% 30.04 in
(1017 mb)
Calm - 10SM
19:54
Partly Cloudy
55°F / 13°C 52°F / 11°C 88% 30.01 in
(1016 mb)
Calm 0.00 in
(0.00 mm)
10SM
18:54
Overcast
Light Rain
57°F / 14°C 52°F / 11°C 82% 30.04 in
(1017 mb)
S 5.8 mph
(S 9 kph)
0.00 in
(0.00 mm)
10SM
17:54
Mostly Cloudy
Light Rain
61°F / 16°C 50°F / 10°C 68% 30.01 in
(1016 mb)
S 5.8 mph
(S 9 kph)
0.00 in
(0.00 mm)
10SM
16:54
Partly Cloudy
63°F / 17°C 48°F / 9°C 59% 30.01 in
(1016 mb)
S 6.9 mph
(S 11 kph)
- 10SM
15:54
Clear
66°F / 19°C 48°F / 9°C 52% 30.01 in
(1016 mb)
SSE 8.1 mph
(SSE 13 kph)
- 10SM
14:54
Clear
66°F / 19°C 48°F / 9°C 52% 30.01 in
(1016 mb)
SW 6.9 mph
(SW 11 kph)
- 10SM
13:54
Partly Cloudy
68°F / 20°C 46°F / 8°C 46% 30.01 in
(1016 mb)
SW 8.1 mph
(SW 13 kph)
- 10SM
12:54
Clear
64°F / 18°C 45°F / 7°C 49% 30.04 in
(1017 mb)
SE 5.8 mph
(SE 9 kph)
- 10SM
11:54
Clear
64°F / 18°C 45°F / 7°C 49% 30.06 in
(1018 mb)
S 5.8 mph
(S 9 kph)
- 10SM
10:54
Clear
61°F / 16°C 46°F / 8°C 59% 30.12 in
(1020 mb)
SW 8.1 mph
(SW 13 kph)
- 10SM
09:54
Clear
57°F / 14°C 46°F / 8°C 67% 30.12 in
(1020 mb)
S 12.7 mph
(S 20 kph)
- 10SM
08:54
Clear
50°F / 10°C 45°F / 7°C 82% 30.15 in
(1021 mb)
S 3.5 mph
(S 6 kph)
- 10SM
07:54
Partly Cloudy
43°F / 6°C 41°F / 5°C 93% 30.15 in
(1021 mb)
S 3.5 mph
(S 6 kph)
- 10SM
07:45
Partly Cloudy
43°F / 6°C 41°F / 5°C 93% 30.15 in
(1021 mb)
Calm - 10SM
07:26
Overcast
Fog And Mist
41°F / 5°C 39°F / 4°C 93% 30.12 in
(1020 mb)
Calm - 3SM
07:24
Obscured
Fog And Mist
39°F / 4°C 39°F / 4°C 100% 30.12 in
(1020 mb)
Calm - 1SM
07:03
Obscured
Fog
39°F / 4°C 39°F / 4°C 100% 30.12 in
(1020 mb)
SSE 4.6 mph
(SSE 7 kph)
- 1/4SM
06:54
Mostly Cloudy
Fog And Mist
39°F / 4°C 37°F / 3°C 93% 30.12 in
(1020 mb)
SSE 4.6 mph
(SSE 7 kph)
- 1 1/4SM
06:52
Mostly Cloudy
Fog And Mist
39°F / 4°C 37°F / 3°C 93% 30.12 in
(1020 mb)
SSE 4.6 mph
(SSE 7 kph)
- 1 3/4SM
06:15
Partly Cloudy
Fog And Mist
39°F / 4°C 37°F / 3°C 93% 30.12 in
(1020 mb)
SSE 3.5 mph
(SSE 6 kph)
- 4SM
06:05
Mostly Cloudy
Fog And Mist
39°F / 4°C 37°F / 3°C 93% 30.12 in
(1020 mb)
Calm - 2 1/2SM
05:54
Partly Cloudy
39°F / 4°C 37°F / 3°C 93% 30.12 in
(1020 mb)
Calm - 7SM
05:51
Partly Cloudy
39°F / 4°C 37°F / 3°C 93% 30.12 in
(1020 mb)
Calm - 7SM
04:54
Clear
39°F / 4°C 37°F / 3°C 93% 30.12 in
(1020 mb)
Calm - 10SM
03:54
Partly Cloudy
41°F / 5°C 37°F / 3°C 87% 30.12 in
(1020 mb)
Calm - 10SM
03:50
Partly Cloudy
41°F / 5°C 37°F / 3°C 87% 30.12 in
(1020 mb)
Calm - 10SM
02:54
Clear
43°F / 6°C 39°F / 4°C 87% 30.12 in
(1020 mb)
Calm - 10SM
01:54
Clear
43°F / 6°C 41°F / 5°C 93% 30.12 in
(1020 mb)
Calm - 10SM
00:54
Clear
43°F / 6°C 39°F / 4°C 87% 30.12 in
(1020 mb)
Calm - 10SM
Time Weather Temperature Dewpoint Humidity Pressure Winds Precip Visibility


Weather for websites

WeatherForYou.com, LLC is not responsible for any damages or problems caused by this service. Current weather conditions are obtained from the closest station including government and personal stations which may have varying degrees of accuracy. Weather forecasts are derived from the NOAA NDFD. Like all things, this site belongs to Jesus Christ... He just trusts me to maintain it. If you have any questions or comments email webmaster@weatherforyou.com

Copyright © 2014, WeatherForYou.com LLC. All rights reserved.